{"data":{"norad_id":56125,"intl_designator":"2023-046AK","name":"STARLINK-6119","alt_names":[],"object_type":"PAYLOAD","status":"ACTIVE","operator":null,"country":"US","launch_date":"2023-03-29","launch_site_code":"AFETR","launch_vehicle":null,"mission":null,"orbit_class":"UNKNOWN","rcs_meters":null,"size_class":null,"mass_kg":null,"dimensions":null,"purposes":["comms"],"wikipedia_slug":null,"has_3d_model":false,"image_url":null,"decayed_at":null,"tle_current":{"epoch":"2026-09-20T22:11:58.468128Z","epoch_age_seconds":72096,"freshness":"FRESH","line1":"1 56125U 23046AK  26263.92498227 -.00000536  00000+0 -99712-5 0  9994","line2":"2 56125  43.0028 124.8518 0001128 266.5265  93.5458 15.27575982192053","mean_motion":15.27575982,"eccentricity":0.0001128,"inclination_deg":43.0028,"raan_deg":124.8518,"arg_perigee_deg":266.5265,"mean_anomaly_deg":93.5458,"bstar":-9.9712e-6,"rev_number":19205,"period_min":94.266996664523,"perigee_km":482.28718425472,"apogee_km":483.83507055226,"semimajor_km":6861.1981274035,"source":"CELESTRAK","updated_at":"2026-09-21T09:00:33.386611Z"}}}